Preview of NWS' New Version of Forecast
This preview is not operational and should not be used for support decisions.

Regional Weather Roundup (RWR)

Issued by National Weather Service (NWS)

                            
000
ASUS46 KSEW 210110
RWRWA 

WASHINGTON REGIONAL WEATHER ROUNDUP
NATIONAL WEATHER SERVICE SEATTLE WA
600 PM PDT FRI SEP 20 2019

NOTE:"FAIR" INDICATES FEW OR NO CLOUDS BELOW 12,000 FEET WITH NO 
SIGNIFICANT WEATHER AND/OR OBSTRUCTIONS TO VISIBILITY.

WAZ507-509-555>559-210200-
SEATTLE, TACOMA, EVERETT, AND VICINITY
  
CITY           SKY/WX    TMP DP  RH WIND       PRES   REMARKS
EVERETT        PTSUNNY   64  52  64 W5        30.13S                  
BOEING FIELD   PTSUNNY   67  54  63 CALM      30.12S                  
RENTON         PTSUNNY   67  53  61 CALM      30.11S                  
SEATAC AIRPORT PTSUNNY   67  53  61 W5        30.12S                  
JBLM-MCCHORD   PTSUNNY   68  59  73 W6        30.12R                  
PUYALLUP       FAIR      66  57  72 CALM      30.12S                  
BREMERTON      CLOUDY    65  54  67 CALM      30.12                   
JBLM-FT LEWIS  PTSUNNY   67  60  79 CALM      30.11S                  
TACOMA NARROWS CLOUDY    65  53  65 W3        30.13R                  
$$
 
WAZ001-503-506-510-514-515-210200-
NORTH INTERIOR
  
CITY           SKY/WX    TMP DP  RH WIND       PRES   REMARKS
BELLINGHAM     MOSUNNY   65  52  62 S5        30.10F                  
FRIDAY HARBOR  SUNNY     62  52  69 CALM      30.11F                  
EASTSOUND      CLOUDY    63  55  77 S3        30.10S                  
PORT ANGELES   CLOUDY    65  54  67 CALM      30.11F                  
EDIZ HOOK      FAIR      61  56  85 NE7       30.11S                  
PORT TOWNSEND  FAIR      64  54  68 CALM      30.10F                  
NAS WHIDBEY    PTSUNNY   62  53  72 NW3       30.15S                  
ARLINGTON      MOSUNNY   66  54  65 NW3       30.12S                  
BURLINGTON     SUNNY     72  54  53 CALM      30.11S                  
$$
 
WAZ020-022-039-040-504-511-512-210200-
SOUTHWEST INTERIOR
  
CITY           SKY/WX    TMP DP  RH WIND       PRES   REMARKS
SHELTON        PTSUNNY   68  54  60 SW9       30.09R                  
OLYMPIA        MOSUNNY   67  53  61 SW3       30.11S                  
CHEHALIS       FAIR      68  57  68 NW3       30.12S                  
KELSO          CLOUDY    68  56  65 CALM      30.12F                  
VANCOUVER      CLOUDY    67  55  65 SE5       30.11F                  
SCAPPOOSE, OR  PTSUNNY   66  57  72 E3        30.11S                  
PORTLAND, OR   PTSUNNY   68  55  63 S5        30.12F                  
$$
 
WAZ021-516-517-210200-
WASHINGTON COAST
  
CITY           SKY/WX    TMP DP  RH WIND       PRES   REMARKS
FORKS          CLOUDY    61  56  83 S3        30.12S                  
HOQUIAM        MOSUNNY   64  59  83 W8        30.13S                  
ASTORIA, OR    CLOUDY    64  58  80 W8        30.13F                  
$$
 
WAZ019-023-024-040-567>569-210200-
CASCADE MOUNTAINS AND COLUMBIA GORGE
  
CITY           SKY/WX    TMP DP  RH WIND       PRES   REMARKS
STAMPEDE PASS  NOT AVBL                                               
TROUTDALE, OR  CLOUDY    67  55  65 S6        30.12F                  
HOOD RIVER, OR CLEAR     64  48  55 SW3       30.07F                  
THE DALLES, OR SUNNY     70  48  45 W14G25    30.03S                  
$$

WAZ026-027-041>044-520-521-210200-
EAST SLOPES
  
CITY           SKY/WX    TMP DP  RH WIND       PRES   REMARKS
OMAK           MOCLDY    68  42  38 N8        29.98R                  
WENATCHEE      MOCLDY    70  41  34 NW16      29.97S                  
ELLENSBURG     MOSUNNY   66  44  45 NW25G35   30.01F                  
YAKIMA         MOSUNNY   71  43  36 NW18G25   30.00R                  
SUNNYSIDE ARPT MOCLDY    74  49  42 SE5       29.98S                  
YAKIMA TC      MOCLDY    69  40  35 NW13G21   29.99R                  
$$

WAZ028-034-035-210200-
COLUMBIA BASIN
  
CITY           SKY/WX    TMP DP  RH WIND       PRES   REMARKS
EPHRATA        MOCLDY    74  40  29 SW10      29.95F                  
MOSES LAKE     MOCLDY    75  44  33 S8        29.96F                  
PASCO          PTCLDY    74  46  36 S12       29.99S                  
RICHLAND ARPT  PTCLDY    75  48  38 S10       29.98S                  
HERMISTON, OR  PTCLDY    72  46  39 S5        30.00S                  
$$

WAZ036>038-210200-
NORTHEAST WASHINGTON
  
CITY           SKY/WX    TMP DP  RH WIND       PRES   REMARKS
SPOKANE GEIGER MOCLDY    60  48  64 S8        30.00S                  
SPOKANE FELTS  CLOUDY    64  50  60 E3        29.99S                  
FAIRCHILD AFB  PTCLDY    57  57 100 SE8       30.00S                  
COEURDALENE,ID CLOUDY    58  50  75 SE6       30.02R                  
DEER PARK      PTCLDY    63  49  60 SE6       30.00R                  
$$

WAZ029>033-210200-
SOUTHEAST WASHINGTON
  
CITY           SKY/WX    TMP DP  RH WIND       PRES   REMARKS
PULLMAN        PTCLDY    57  47  69 W8        30.05S                  
LEWISTON, ID   CLOUDY    65  46  50 NW6       30.01F                  
WALLA WALLA    PTCLDY    67  46  47 S7        30.02F                  
PENDLETON, OR  CLEAR     68  45  43 CALM      30.02F                  
$$